Regional Weather Roundup
Issued by NWS

Home | Current Version | Previous Version | Text Only | Print | Product List | Glossary On
Versions: 1 2 3 4 5 6 7 8 9 10 11 12 13 14 15 16 17 18 19 20 21 22 23 24 25 26 27 28 29 30 31 32 33 34 35 36 37 38 39 40 41 42 43 44 45 46 47 48 49 50
000
ASUS46 KPQR 282310
RWROR

OREGON REGIONAL WEATHER ROUNDUP
NATIONAL WEATHER SERVICE PORTLAND OR
300 PM PST FRI NOV 28 2014

NOTE: "FAIR" INDICATES FEW OR NO CLOUDS BELOW 12,000 FEET WITH
NO SIGNIFICANT WEATHER AND/OR OBSTRUCTIONS TO VISIBILITY.

ORZ001>013-290000-
NORTHWEST OREGON


CITY           SKY/WX    TMP DP  RH WIND       PRES   REMARKS
ASTORIA        CLOUDY    46  42  86 N16       29.53R
NEWPORT        LGT RAIN  55  54  94 SW22G30   29.59F
PORTLAND       PTSUNNY   56  52  86 S22G29    29.47F
VANCOUVER WA   CLOUDY    56  51  84 S14G25    29.46F
SCAPPOOSE      CLOUDY    55  52  89 SE3       29.45S
HILLSBORO      CLOUDY    55  53  93 S12       29.45F
AURORA         CLOUDY    55  52  89 S15G28    29.50F
MCMINNVILLE    MOSUNNY   55  52  89 S15       29.49F
SALEM          PTSUNNY   56  52  86 S17G26    29.51F
CORVALLIS      CLOUDY    59  52  77 S14       29.57F
EUGENE         PTSUNNY   56  53  90 S10       29.61S
$$

ORZ021-028-290000-
SOUTHWEST OREGON


CITY           SKY/WX    TMP DP  RH WIND       PRES   REMARKS
NORTH BEND     PTSUNNY   61  61 100 SW13G23   29.68R
BROOKINGS      LGT RAIN  57  57 100 S9G18     29.76F VSB 3/4
ROSEBURG       MOSUNNY   56  52  86 CALM      29.66F
SEXTON SUMMIT  LGT RAIN  45  45 100 SW12G22   29.70S VSB<1/4
MEDFORD        CLOUDY    57  47  69 W7        29.70S
$$

ORZ014>016-041-290000-
COLUMBIA GORGE


CITY           SKY/WX    TMP DP  RH WIND       PRES   REMARKS
TROUTDALE      CLOUDY    57  51  80 SW22G29   29.47S HAZE
THE DALLES     CLOUDY    55  53  93 E7        29.43F
$$

ORZ029>031-041-044-049-050-061>064-502-503-505>511-290000-
EASTERN OREGON


CITY           SKY/WX    TMP DP  RH WIND       PRES   REMARKS
REDMOND        MOSUNNY   49  38  65 SW22G31   29.57F
BEND           MOSUNNY   46  37  71 SW24G37   29.58S
PRINEVILLE     PTSUNNY   54  37  54 SW16G31   29.59S
KLAMATH FALLS  MOSUNNY   46  35  65 S15       29.76F
LAKEVIEW       CLOUDY    39  34  81 S14G21    29.84F WCI  31
HERMISTON      CLOUDY    63  39  41 SW18G28   29.43F
PENDLETON      CLOUDY    57  36  45 S18G30    29.46F
JOHN DAY       CLOUDY    51  32  47 S12       29.63F
MEACHAM        CLOUDY    48  34  58 VRB5      29.54F
LA GRANDE      CLOUDY    54  36  50 SE14      29.54F
BAKER CITY     MOCLDY    51  34  52 E13       29.61F
BURNS          CLOUDY    49  34  56 SW23G29   29.70F
ROME             N/A     57  13  17 SW24G37   29.71F
ONTARIO        CLOUDY    47  42  83 CALM      29.68F
$$


USA.gov is the U.S. government's official web portal to all federal, state and local government web resources and services.